Time,TemperatureF,DewpointF,PressureIn,WindDirection,WindDirectionDegrees,WindSpeedMPH,WindSpeedGustMPH,Humidity,HourlyPrecipIn,Conditions,Clouds,dailyrainin,SoftwareType,DateUTC
2013-09-11 00:01:00,80.8,73.0,30.06,ESE,112,3.7,8.0,79,0.00,,,0.00,Rainwise IP-100,2013-09-11 04:01:00,
2013-09-11 00:06:00,80.7,74.0,30.06,ENE,67,3.5,8.0,80,0.00,,,0.00,Rainwise IP-100,2013-09-11 04:06:00,
2013-09-11 00:11:00,80.7,74.0,30.06,ESE,112,3.7,11.0,80,0.00,,,0.00,Rainwise IP-100,2013-09-11 04:11:00,
2013-09-11 00:16:00,80.7,74.0,30.05,East,90,4.2,6.0,80,0.00,,,0.00,Rainwise IP-100,2013-09-11 04:16:00,
2013-09-11 00:21:00,80.8,74.0,30.05,ESE,112,3.3,7.0,81,0.00,,,0.00,Rainwise IP-100,2013-09-11 04:21:00,
2013-09-11 00:26:00,80.7,74.0,30.05,East,90,1.9,6.0,81,0.00,,,0.00,Rainwise IP-100,2013-09-11 04:26:00,
2013-09-11 00:31:00,80.6,73.0,30.05,SSW,202,3.3,8.0,80,0.00,,,0.00,Rainwise IP-100,2013-09-11 04:31:00,
2013-09-11 00:37:00,80.7,74.0,30.05,ENE,67,6.5,10.0,80,0.00,,,0.00,Rainwise IP-100,2013-09-11 04:37:00,
2013-09-11 00:42:00,80.6,73.0,30.05,ENE,67,5.1,11.0,80,0.00,,,0.00,Rainwise IP-100,2013-09-11 04:42:00,
2013-09-11 00:47:00,80.6,73.0,30.05,East,90,2.3,5.0,80,0.00,,,0.00,Rainwise IP-100,2013-09-11 04:47:00,
2013-09-11 00:52:00,80.5,73.0,30.05,SSE,157,2.1,4.0,79,0.00,,,0.00,Rainwise IP-100,2013-09-11 04:52:00,
2013-09-11 00:57:00,80.4,73.0,30.04,SSW,202,0.0,5.0,78,0.00,,,0.00,Rainwise IP-100,2013-09-11 04:57:00,
2013-09-11 01:02:00,80.6,72.0,30.04,ESE,112,5.6,9.0,76,0.00,,,0.00,Rainwise IP-100,2013-09-11 05:02:00,
2013-09-11 01:07:00,81.2,72.0,30.04,East,90,4.7,10.0,75,0.00,,,0.00,Rainwise IP-100,2013-09-11 05:07:00,
2013-09-11 01:13:00,81.7,73.0,30.04,ENE,67,1.9,9.0,76,0.00,,,0.00,Rainwise IP-100,2013-09-11 05:13:00,
2013-09-11 01:18:00,81.7,74.0,30.03,East,90,3.5,10.0,78,0.00,,,0.00,Rainwise IP-100,2013-09-11 05:18:00,
2013-09-11 01:23:00,81.6,74.0,30.04,ESE,112,3.0,13.0,80,0.00,,,0.00,Rainwise IP-100,2013-09-11 05:23:00,
2013-09-11 01:28:00,81.5,75.0,30.04,ESE,112,3.3,9.0,81,0.00,,,0.00,Rainwise IP-100,2013-09-11 05:28:00,
2013-09-11 01:33:00,81.5,75.0,30.03,ESE,112,6.5,13.0,81,0.00,,,0.00,Rainwise IP-100,2013-09-11 05:33:00,
2013-09-11 01:38:00,81.5,75.0,30.03,SE,135,3.3,11.0,82,0.00,,,0.00,Rainwise IP-100,2013-09-11 05:38:00,
2013-09-11 01:43:00,81.4,75.0,30.03,ESE,112,5.8,11.0,82,0.00,,,0.00,Rainwise IP-100,2013-09-11 05:43:00,
2013-09-11 01:48:00,81.4,75.0,30.03,SE,135,3.7,11.0,82,0.00,,,0.00,Rainwise IP-100,2013-09-11 05:48:00,
2013-09-11 01:54:00,81.3,76.0,30.03,ENE,67,6.5,12.0,83,0.00,,,0.00,Rainwise IP-100,2013-09-11 05:54:00,
2013-09-11 01:59:00,81.3,76.0,30.03,ENE,67,3.7,10.0,83,0.00,,,0.00,Rainwise IP-100,2013-09-11 05:59:00,
2013-09-11 02:04:00,81.3,76.0,30.03,ENE,67,6.1,8.0,83,0.00,,,0.00,Rainwise IP-100,2013-09-11 06:04:00,
2013-09-11 02:09:00,81.2,76.0,30.03,SSE,157,0.0,8.0,83,0.00,,,0.00,Rainwise IP-100,2013-09-11 06:09:00,
2013-09-11 02:14:00,81.1,76.0,30.03,East,90,7.0,10.0,84,0.00,,,0.00,Rainwise IP-100,2013-09-11 06:14:00,
2013-09-11 02:19:00,81.1,76.0,30.03,East,90,5.4,8.0,84,0.00,,,0.00,Rainwise IP-100,2013-09-11 06:19:00,
2013-09-11 02:24:00,81.2,76.0,30.02,ESE,112,1.2,8.0,84,0.00,,,0.00,Rainwise IP-100,2013-09-11 06:24:00,
2013-09-11 02:30:00,81.3,76.0,30.02,East,90,10.7,10.7,84,0.00,,,0.00,Rainwise IP-100,2013-09-11 06:30:00,
2013-09-11 02:35:00,81.4,76.0,30.02,ESE,112,1.4,11.0,85,0.00,,,0.00,Rainwise IP-100,2013-09-11 06:35:00,
2013-09-11 02:40:00,81.3,76.0,30.02,ENE,67,3.0,10.0,85,0.00,,,0.00,Rainwise IP-100,2013-09-11 06:40:00,
2013-09-11 02:45:00,81.3,76.0,30.02,ESE,112,6.1,9.0,85,0.00,,,0.00,Rainwise IP-100,2013-09-11 06:45:00,
2013-09-11 02:50:00,81.3,76.0,30.01,ENE,67,5.1,10.0,85,0.00,,,0.00,Rainwise IP-100,2013-09-11 06:50:00,
2013-09-11 02:55:00,81.2,76.0,30.02,ENE,67,1.2,7.0,84,0.00,,,0.00,Rainwise IP-100,2013-09-11 06:55:00,
2013-09-11 03:00:00,81.1,76.0,30.01,ESE,112,7.0,7.0,84,0.00,,,0.00,Rainwise IP-100,2013-09-11 07:00:00,
2013-09-11 03:05:00,81.1,75.0,30.02,East,90,3.5,11.0,83,0.00,,,0.00,Rainwise IP-100,2013-09-11 07:05:00,
2013-09-11 03:11:00,81.3,76.0,30.01,East,90,5.1,8.0,83,0.00,,,0.00,Rainwise IP-100,2013-09-11 07:11:00,
2013-09-11 03:16:00,81.5,76.0,30.01,SSE,157,1.9,6.0,83,0.00,,,0.00,Rainwise IP-100,2013-09-11 07:16:00,
2013-09-11 03:21:00,81.5,76.0,30.01,ESE,112,2.1,6.0,83,0.00,,,0.00,Rainwise IP-100,2013-09-11 07:21:00,
2013-09-11 03:26:00,81.4,75.0,30.01,ESE,112,4.2,10.0,82,0.00,,,0.00,Rainwise IP-100,2013-09-11 07:26:00,
2013-09-11 03:31:00,81.4,75.0,30.01,NE,45,3.3,8.0,82,0.00,,,0.00,Rainwise IP-100,2013-09-11 07:31:00,
2013-09-11 03:36:00,81.5,75.0,30.01,ESE,112,5.1,9.0,81,0.00,,,0.00,Rainwise IP-100,2013-09-11 07:36:00,
2013-09-11 03:41:00,81.6,75.0,30.01,East,90,3.7,10.0,82,0.00,,,0.00,Rainwise IP-100,2013-09-11 07:41:00,
2013-09-11 03:47:00,81.6,75.0,30.01,ESE,112,4.0,8.0,82,0.00,,,0.00,Rainwise IP-100,2013-09-11 07:47:00,
2013-09-11 03:52:00,81.6,75.0,30.00,East,90,2.1,6.0,82,0.00,,,0.00,Rainwise IP-100,2013-09-11 07:52:00,
2013-09-11 03:57:00,81.5,75.0,30.00,ESE,112,1.9,8.0,82,0.00,,,0.00,Rainwise IP-100,2013-09-11 07:57:00,
2013-09-11 04:02:00,81.5,75.0,30.00,ENE,67,4.0,11.0,82,0.00,,,0.00,Rainwise IP-100,2013-09-11 08:02:00,
2013-09-11 04:07:00,81.7,75.0,30.00,ENE,67,3.5,9.0,81,0.00,,,0.00,Rainwise IP-100,2013-09-11 08:07:00,
2013-09-11 04:12:00,81.7,74.0,30.00,ESE,112,1.9,10.0,80,0.00,,,0.00,Rainwise IP-100,2013-09-11 08:12:00,
2013-09-11 04:17:00,81.7,74.0,30.00,ESE,112,5.6,6.0,80,0.00,,,0.00,Rainwise IP-100,2013-09-11 08:17:00,
2013-09-11 04:22:00,81.8,74.0,30.00,ESE,112,0.0,10.0,80,0.00,,,0.00,Rainwise IP-100,2013-09-11 08:22:00,
2013-09-11 04:28:00,81.8,74.0,30.00,ESE,112,3.0,7.0,80,0.00,,,0.00,Rainwise IP-100,2013-09-11 08:28:00,
2013-09-11 04:33:00,81.8,74.0,30.00,East,90,4.7,5.0,80,0.00,,,0.00,Rainwise IP-100,2013-09-11 08:33:00,
2013-09-11 04:38:00,81.9,75.0,30.00,ESE,112,0.0,8.0,80,0.00,,,0.00,Rainwise IP-100,2013-09-11 08:38:00,
2013-09-11 04:43:00,82.0,75.0,30.01,NE,45,3.0,8.0,80,0.00,,,0.00,Rainwise IP-100,2013-09-11 08:43:00,
2013-09-11 04:48:00,81.9,75.0,30.01,ESE,112,5.6,12.0,81,0.00,,,0.00,Rainwise IP-100,2013-09-11 08:48:00,
2013-09-11 04:53:00,81.9,75.0,30.00,ESE,112,4.0,8.0,80,0.00,,,0.00,Rainwise IP-100,2013-09-11 08:53:00,
2013-09-11 04:58:00,81.9,75.0,30.01,ENE,67,3.0,9.0,80,0.00,,,0.00,Rainwise IP-100,2013-09-11 08:58:00,
2013-09-11 05:04:00,81.9,75.0,30.01,SSE,157,2.3,8.0,80,0.00,,,0.00,Rainwise IP-100,2013-09-11 09:04:00,
2013-09-11 05:09:00,81.8,74.0,30.01,ENE,67,7.7,10.0,80,0.00,,,0.00,Rainwise IP-100,2013-09-11 09:09:00,
2013-09-11 05:14:00,81.9,75.0,30.01,East,90,0.0,7.0,81,0.00,,,0.00,Rainwise IP-100,2013-09-11 09:14:00,
2013-09-11 05:19:00,82.0,75.0,30.01,ESE,112,2.1,11.0,81,0.00,,,0.00,Rainwise IP-100,2013-09-11 09:19:00,
2013-09-11 05:24:00,82.1,75.0,30.01,ESE,112,3.0,9.0,81,0.00,,,0.00,Rainwise IP-100,2013-09-11 09:24:00,
2013-09-11 05:29:00,82.1,75.0,30.01,SSE,157,2.3,12.0,80,0.00,,,0.00,Rainwise IP-100,2013-09-11 09:29:00,
2013-09-11 05:34:00,82.1,75.0,30.01,East,90,5.6,8.0,80,0.00,,,0.00,Rainwise IP-100,2013-09-11 09:34:00,
2013-09-11 05:39:00,82.1,75.0,30.02,ENE,67,2.6,8.0,80,0.00,,,0.00,Rainwise IP-100,2013-09-11 09:39:00,
2013-09-11 05:45:00,82.1,75.0,30.02,SSE,157,4.4,11.0,80,0.00,,,0.00,Rainwise IP-100,2013-09-11 09:45:00,
2013-09-11 05:50:00,82.2,75.0,30.02,SSE,157,0.0,10.0,79,0.00,,,0.00,Rainwise IP-100,2013-09-11 09:50:00,
2013-09-11 05:55:00,82.1,74.0,30.02,SSE,157,2.6,11.0,79,0.00,,,0.00,Rainwise IP-100,2013-09-11 09:55:00,
2013-09-11 06:00:00,82.2,75.0,30.02,ESE,112,4.2,11.0,79,0.00,,,0.00,Rainwise IP-100,2013-09-11 10:00:00,
2013-09-11 06:05:00,82.2,74.0,30.02,East,90,2.1,7.0,78,0.00,,,0.00,Rainwise IP-100,2013-09-11 10:05:00,
2013-09-11 06:10:00,82.2,75.0,30.03,SSE,157,1.4,6.0,79,0.00,,,0.00,Rainwise IP-100,2013-09-11 10:10:00,
2013-09-11 06:15:00,82.1,74.0,30.02,ENE,67,1.9,7.0,79,0.00,,,0.00,Rainwise IP-100,2013-09-11 10:15:00,
2013-09-11 06:21:00,82.0,74.0,30.02,ENE,67,5.4,8.0,79,0.00,,,0.00,Rainwise IP-100,2013-09-11 10:21:00,
2013-09-11 06:26:00,82.0,74.0,30.02,ESE,112,4.9,7.0,79,0.00,,,0.00,Rainwise IP-100,2013-09-11 10:26:00,
2013-09-11 06:31:00,82.0,74.0,30.03,ESE,112,2.3,8.0,79,0.00,,,0.00,Rainwise IP-100,2013-09-11 10:31:00,
2013-09-11 06:36:00,82.1,74.0,30.03,ESE,112,2.1,8.0,79,0.00,,,0.00,Rainwise IP-100,2013-09-11 10:36:00,
2013-09-11 06:41:00,82.1,74.0,30.02,ESE,112,3.7,7.0,79,0.00,,,0.00,Rainwise IP-100,2013-09-11 10:41:00,
2013-09-11 06:46:00,82.1,74.0,30.03,SSE,157,1.9,6.0,79,0.00,,,0.00,Rainwise IP-100,2013-09-11 10:46:00,
2013-09-11 06:51:00,82.2,75.0,30.03,ESE,112,1.2,9.0,79,0.00,,,0.00,Rainwise IP-100,2013-09-11 10:51:00,
2013-09-11 06:56:00,82.2,75.0,30.03,ENE,67,4.4,8.0,79,0.00,,,0.00,Rainwise IP-100,2013-09-11 10:56:00,
2013-09-11 07:02:00,82.2,75.0,30.03,ENE,67,4.9,5.0,79,0.00,,,0.00,Rainwise IP-100,2013-09-11 11:02:00,
2013-09-11 07:07:00,82.3,75.0,30.03,ESE,112,7.7,10.0,79,0.00,,,0.00,Rainwise IP-100,2013-09-11 11:07:00,
2013-09-11 07:12:00,82.4,75.0,30.03,NE,45,5.6,10.0,79,0.00,,,0.00,Rainwise IP-100,2013-09-11 11:12:00,
2013-09-11 07:17:00,82.4,75.0,30.03,East,90,6.1,8.0,79,0.00,,,0.00,Rainwise IP-100,2013-09-11 11:17:00,
2013-09-11 07:22:00,82.4,75.0,30.03,ESE,112,8.6,10.0,79,0.00,,,0.00,Rainwise IP-100,2013-09-11 11:22:00,
2013-09-11 07:27:00,82.4,75.0,30.03,ENE,67,9.1,10.0,79,0.00,,,0.00,Rainwise IP-100,2013-09-11 11:27:00,
2013-09-11 07:32:00,82.6,75.0,30.04,SSE,157,4.2,10.0,79,0.00,,,0.00,Rainwise IP-100,2013-09-11 11:32:00,
2013-09-11 07:38:00,82.6,75.0,30.04,East,90,1.9,9.0,79,0.00,,,0.00,Rainwise IP-100,2013-09-11 11:38:00,
2013-09-11 07:43:00,82.7,75.0,30.04,SE,135,6.1,6.1,78,0.00,,,0.00,Rainwise IP-100,2013-09-11 11:43:00,
2013-09-11 07:48:00,82.9,75.0,30.04,ENE,67,4.0,8.0,77,0.00,,,0.00,Rainwise IP-100,2013-09-11 11:48:00,
2013-09-11 07:53:00,83.1,74.0,30.04,ENE,67,5.4,8.0,76,0.00,,,0.00,Rainwise IP-100,2013-09-11 11:53:00,
2013-09-11 07:58:00,83.1,74.0,30.05,ESE,112,7.2,10.0,76,0.00,,,0.00,Rainwise IP-100,2013-09-11 11:58:00,
2013-09-11 08:03:00,83.2,75.0,30.04,ESE,112,2.3,9.0,77,0.00,,,0.00,Rainwise IP-100,2013-09-11 12:03:00,
2013-09-11 08:08:00,83.3,75.0,30.05,ESE,112,7.5,8.0,77,0.00,,,0.00,Rainwise IP-100,2013-09-11 12:08:00,
2013-09-11 08:13:00,83.6,75.0,30.05,ESE,112,2.6,11.0,76,0.00,,,0.00,Rainwise IP-100,2013-09-11 12:13:00,
2013-09-11 08:19:00,84.0,75.0,30.05,ESE,112,2.8,9.0,75,0.00,,,0.00,Rainwise IP-100,2013-09-11 12:19:00,
2013-09-11 08:24:00,84.4,75.0,30.06,SSE,157,2.6,11.0,74,0.00,,,0.00,Rainwise IP-100,2013-09-11 12:24:00,
2013-09-11 08:29:00,84.4,75.0,30.05,East,90,3.5,10.0,74,0.00,,,0.00,Rainwise IP-100,2013-09-11 12:29:00,
2013-09-11 08:34:00,84.1,75.0,30.05,ESE,112,7.5,8.0,75,0.00,,,0.00,Rainwise IP-100,2013-09-11 12:34:00,
2013-09-11 08:39:00,84.0,75.0,30.06,SE,135,4.0,11.0,75,0.00,,,0.00,Rainwise IP-100,2013-09-11 12:39:00,
2013-09-11 08:44:00,84.2,75.0,30.05,ESE,112,7.7,11.0,74,0.00,,,0.00,Rainwise IP-100,2013-09-11 12:44:00,
2013-09-11 08:49:00,84.3,74.0,30.06,ESE,112,5.8,10.0,72,0.00,,,0.00,Rainwise IP-100,2013-09-11 12:49:00,
2013-09-11 08:55:00,84.4,74.0,30.05,SE,135,2.8,10.0,72,0.00,,,0.00,Rainwise IP-100,2013-09-11 12:55:00,
2013-09-11 09:00:00,84.8,75.0,30.05,SSE,157,3.7,11.0,74,0.00,,,0.00,Rainwise IP-100,2013-09-11 13:00:00,
2013-09-11 09:05:00,85.0,76.0,30.05,SSE,157,4.4,11.0,74,0.00,,,0.00,Rainwise IP-100,2013-09-11 13:05:00,
2013-09-11 09:10:00,84.9,76.0,30.05,East,90,6.5,13.0,74,0.00,,,0.00,Rainwise IP-100,2013-09-11 13:10:00,
2013-09-11 09:15:00,85.0,75.0,30.05,SE,135,6.8,12.0,73,0.00,,,0.00,Rainwise IP-100,2013-09-11 13:15:00,
2013-09-11 09:20:00,84.7,74.0,30.05,SSE,157,5.1,13.0,71,0.00,,,0.00,Rainwise IP-100,2013-09-11 13:20:00,
2013-09-11 09:25:00,84.4,73.0,30.05,SSE,157,1.9,7.0,71,0.00,,,0.00,Rainwise IP-100,2013-09-11 13:25:00,
2013-09-11 09:30:00,84.4,75.0,30.06,South,180,2.3,7.0,74,0.00,,,0.00,Rainwise IP-100,2013-09-11 13:30:00,
2013-09-11 09:36:00,84.4,75.0,30.06,ESE,112,3.3,11.0,75,0.00,,,0.00,Rainwise IP-100,2013-09-11 13:36:00,
2013-09-11 09:41:00,84.6,76.0,30.06,ESE,112,1.6,9.0,75,0.00,,,0.00,Rainwise IP-100,2013-09-11 13:41:00,
2013-09-11 09:46:00,85.0,76.0,30.06,ESE,112,0.0,4.0,74,0.00,,,0.00,Rainwise IP-100,2013-09-11 13:46:00,
2013-09-11 09:51:00,85.6,76.0,30.06,ESE,112,1.4,11.0,73,0.00,,,0.00,Rainwise IP-100,2013-09-11 13:51:00,
2013-09-11 09:56:00,85.8,75.0,30.06,SE,135,3.3,8.0,72,0.00,,,0.00,Rainwise IP-100,2013-09-11 13:56:00,
2013-09-11 10:01:00,86.0,76.0,30.06,ENE,67,5.4,6.0,72,0.00,,,0.00,Rainwise IP-100,2013-09-11 14:01:00,
2013-09-11 10:06:00,86.5,76.0,30.06,ESE,112,1.2,7.0,71,0.00,,,0.00,Rainwise IP-100,2013-09-11 14:06:00,
2013-09-11 10:12:00,87.3,76.0,30.06,East,90,4.2,6.0,70,0.00,,,0.00,Rainwise IP-100,2013-09-11 14:12:00,
2013-09-11 10:17:00,87.7,75.0,30.07,East,90,3.5,6.0,67,0.00,,,0.00,Rainwise IP-100,2013-09-11 14:17:00,
2013-09-11 10:22:00,87.8,75.0,30.06,ESE,112,1.2,7.0,66,0.00,,,0.00,Rainwise IP-100,2013-09-11 14:22:00,
2013-09-11 10:27:00,87.5,74.0,30.07,East,90,2.3,9.0,66,0.00,,,0.00,Rainwise IP-100,2013-09-11 14:27:00,
2013-09-11 10:32:00,86.7,74.0,30.07,ENE,67,2.3,6.0,67,0.00,,,0.00,Rainwise IP-100,2013-09-11 14:32:00,
2013-09-11 10:37:00,86.4,74.0,30.07,ENE,67,6.1,10.0,68,0.00,,,0.00,Rainwise IP-100,2013-09-11 14:37:00,
2013-09-11 10:42:00,86.8,74.0,30.07,NNE,22,7.9,11.0,68,0.00,,,0.00,Rainwise IP-100,2013-09-11 14:42:00,
2013-09-11 10:47:00,86.6,75.0,30.06,East,90,7.2,11.0,69,0.00,,,0.00,Rainwise IP-100,2013-09-11 14:47:00,
2013-09-11 10:53:00,86.1,75.0,30.06,ENE,67,5.1,9.0,71,0.00,,,0.00,Rainwise IP-100,2013-09-11 14:53:00,
2013-09-11 10:58:00,85.8,75.0,30.06,ENE,67,4.4,10.0,71,0.00,,,0.00,Rainwise IP-100,2013-09-11 14:58:00,
2013-09-11 11:03:00,85.5,74.0,30.06,ENE,67,8.4,9.0,71,0.00,,,0.00,Rainwise IP-100,2013-09-11 15:03:00,
2013-09-11 11:08:00,85.8,75.0,30.06,ENE,67,4.0,9.0,71,0.00,,,0.00,Rainwise IP-100,2013-09-11 15:08:00,
2013-09-11 11:13:00,86.0,75.0,30.06,ENE,67,7.5,9.0,71,0.00,,,0.00,Rainwise IP-100,2013-09-11 15:13:00,
2013-09-11 11:18:00,86.0,75.0,30.07,ENE,67,10.7,10.7,71,0.00,,,0.00,Rainwise IP-100,2013-09-11 15:18:00,
2013-09-11 11:23:00,86.2,75.0,30.07,ESE,112,6.1,11.0,71,0.00,,,0.00,Rainwise IP-100,2013-09-11 15:23:00,
2013-09-11 11:29:00,86.3,75.0,30.07,ENE,67,7.9,10.0,70,0.00,,,0.00,Rainwise IP-100,2013-09-11 15:29:00,
2013-09-11 11:34:00,86.3,75.0,30.07,ENE,67,5.6,11.0,70,0.00,,,0.00,Rainwise IP-100,2013-09-11 15:34:00,
2013-09-11 11:39:00,86.7,74.0,30.08,ENE,67,6.8,13.0,68,0.00,,,0.00,Rainwise IP-100,2013-09-11 15:39:00,
2013-09-11 11:44:00,86.9,75.0,30.07,ENE,67,10.7,15.0,68,0.00,,,0.00,Rainwise IP-100,2013-09-11 15:44:00,
2013-09-11 11:49:00,86.7,74.0,30.07,NNE,22,14.2,16.0,68,0.00,,,0.00,Rainwise IP-100,2013-09-11 15:49:00,
2013-09-11 11:54:00,86.4,75.0,30.08,NE,45,9.3,16.0,69,0.00,,,0.00,Rainwise IP-100,2013-09-11 15:54:00,
2013-09-11 11:59:00,85.6,74.0,30.07,NE,45,13.3,17.0,71,0.00,,,0.00,Rainwise IP-100,2013-09-11 15:59:00,
2013-09-11 12:04:00,84.6,75.0,30.08,ENE,67,14.2,18.0,74,0.00,,,0.00,Rainwise IP-100,2013-09-11 16:04:00,
2013-09-11 12:10:00,83.4,75.0,30.08,NE,45,7.5,16.0,77,0.00,,,0.00,Rainwise IP-100,2013-09-11 16:10:00,
2013-09-11 12:15:00,81.8,75.0,30.08,NNE,22,11.4,21.0,82,0.06,,,0.01,Rainwise IP-100,2013-09-11 16:15:00,
2013-09-11 12:20:00,80.3,74.0,30.08,NNE,22,11.9,22.0,84,0.24,,,0.04,Rainwise IP-100,2013-09-11 16:20:00,
2013-09-11 12:25:00,79.2,74.0,30.08,NNE,22,9.3,23.0,86,0.18,,,0.04,Rainwise IP-100,2013-09-11 16:25:00,
2013-09-11 12:30:00,78.8,74.0,30.08,NNE,22,12.1,23.0,88,0.00,,,0.04,Rainwise IP-100,2013-09-11 16:30:00,
2013-09-11 12:35:00,78.4,74.0,30.07,NE,45,14.5,19.0,88,0.00,,,0.04,Rainwise IP-100,2013-09-11 16:35:00,
2013-09-11 12:40:00,78.1,74.0,30.07,ENE,67,18.7,20.0,88,0.00,,,0.04,Rainwise IP-100,2013-09-11 16:40:00,
2013-09-11 12:46:00,78.3,74.0,30.08,NE,45,9.6,19.0,87,0.00,,,0.04,Rainwise IP-100,2013-09-11 16:46:00,
2013-09-11 12:51:00,78.6,74.0,30.08,NNE,22,14.7,17.0,88,0.00,,,0.04,Rainwise IP-100,2013-09-11 16:51:00,
2013-09-11 12:56:00,78.9,74.0,30.07,ENE,67,9.6,20.0,87,0.00,,,0.04,Rainwise IP-100,2013-09-11 16:56:00,
2013-09-11 13:01:00,79.3,74.0,30.06,ENE,67,10.3,17.0,86,0.00,,,0.04,Rainwise IP-100,2013-09-11 17:01:00,
2013-09-11 13:06:00,80.0,74.0,30.06,ENE,67,17.0,17.0,84,0.00,,,0.04,Rainwise IP-100,2013-09-11 17:06:00,
2013-09-11 13:11:00,80.7,74.0,30.07,ENE,67,9.3,18.0,82,0.00,,,0.04,Rainwise IP-100,2013-09-11 17:11:00,
2013-09-11 13:16:00,81.2,75.0,30.06,NNE,22,9.8,15.0,82,0.00,,,0.04,Rainwise IP-100,2013-09-11 17:16:00,
2013-09-11 13:21:00,81.6,75.0,30.06,NNE,22,8.6,14.0,82,0.00,,,0.04,Rainwise IP-100,2013-09-11 17:21:00,
2013-09-11 13:27:00,81.9,75.0,30.06,ENE,67,6.8,12.0,80,0.00,,,0.04,Rainwise IP-100,2013-09-11 17:27:00,
2013-09-11 13:32:00,82.2,75.0,30.04,ENE,67,13.3,14.0,79,0.00,,,0.04,Rainwise IP-100,2013-09-11 17:32:00,
2013-09-11 13:37:00,82.1,74.0,30.05,ENE,67,12.4,14.0,78,0.00,,,0.04,Rainwise IP-100,2013-09-11 17:37:00,
2013-09-11 13:42:00,82.3,74.0,30.04,NE,45,13.3,16.0,78,0.00,,,0.04,Rainwise IP-100,2013-09-11 17:42:00,
2013-09-11 13:47:00,82.5,74.0,30.05,ENE,67,5.8,15.0,78,0.00,,,0.04,Rainwise IP-100,2013-09-11 17:47:00,
2013-09-11 13:52:00,82.6,74.0,30.04,ENE,67,5.4,10.0,78,0.00,,,0.04,Rainwise IP-100,2013-09-11 17:52:00,
2013-09-11 13:57:00,82.7,74.0,30.04,ENE,67,7.9,11.0,77,0.00,,,0.04,Rainwise IP-100,2013-09-11 17:57:00,
2013-09-11 14:03:00,82.8,74.0,30.04,ENE,67,5.6,11.0,77,0.00,,,0.04,Rainwise IP-100,2013-09-11 18:03:00,
2013-09-11 14:08:00,82.9,74.0,30.05,ENE,67,1.9,12.0,76,0.00,,,0.04,Rainwise IP-100,2013-09-11 18:08:00,
2013-09-11 14:13:00,82.7,74.0,30.05,ENE,67,3.3,11.0,77,0.00,,,0.04,Rainwise IP-100,2013-09-11 18:13:00,
2013-09-11 14:18:00,82.4,75.0,30.05,ENE,67,1.6,9.0,79,0.00,,,0.04,Rainwise IP-100,2013-09-11 18:18:00,
2013-09-11 14:23:00,82.1,75.0,30.05,East,90,3.5,9.0,80,0.00,,,0.04,Rainwise IP-100,2013-09-11 18:23:00,
2013-09-11 14:28:00,81.7,74.0,30.04,ENE,67,9.3,11.0,79,0.00,,,0.04,Rainwise IP-100,2013-09-11 18:28:00,
2013-09-11 14:33:00,81.6,74.0,30.04,ENE,67,9.1,12.0,79,0.00,,,0.04,Rainwise IP-100,2013-09-11 18:33:00,
2013-09-11 14:38:00,81.7,74.0,30.04,East,90,7.2,11.0,80,0.00,,,0.04,Rainwise IP-100,2013-09-11 18:38:00,
2013-09-11 14:44:00,81.7,74.0,30.05,ENE,67,9.8,12.0,80,0.00,,,0.04,Rainwise IP-100,2013-09-11 18:44:00,
2013-09-11 14:49:00,81.6,74.0,30.04,East,90,6.3,12.0,79,0.00,,,0.04,Rainwise IP-100,2013-09-11 18:49:00,
2013-09-11 14:54:00,81.7,74.0,30.04,ENE,67,6.5,12.0,78,0.00,,,0.04,Rainwise IP-100,2013-09-11 18:54:00,
2013-09-11 14:59:00,81.8,73.0,30.03,ESE,112,6.5,16.0,77,0.00,,,0.04,Rainwise IP-100,2013-09-11 18:59:00,
2013-09-11 15:04:00,81.9,74.0,30.03,ENE,67,8.6,13.0,78,0.00,,,0.04,Rainwise IP-100,2013-09-11 19:04:00,
2013-09-11 15:09:00,81.9,74.0,30.03,East,90,15.4,15.4,79,0.00,,,0.04,Rainwise IP-100,2013-09-11 19:09:00,
2013-09-11 15:14:00,81.6,74.0,30.03,East,90,15.2,15.2,79,0.00,,,0.04,Rainwise IP-100,2013-09-11 19:14:00,
2013-09-11 15:20:00,81.3,74.0,30.03,ENE,67,5.4,15.0,80,0.00,,,0.04,Rainwise IP-100,2013-09-11 19:20:00,
2013-09-11 15:25:00,81.3,74.0,30.04,ENE,67,4.9,10.0,80,0.00,,,0.04,Rainwise IP-100,2013-09-11 19:25:00,
2013-09-11 15:30:00,81.5,74.0,30.03,ESE,112,1.9,11.0,79,0.00,,,0.04,Rainwise IP-100,2013-09-11 19:30:00,
2013-09-11 15:35:00,81.6,73.0,30.03,SSE,157,3.5,10.0,77,0.00,,,0.04,Rainwise IP-100,2013-09-11 19:35:00,
2013-09-11 15:40:00,82.1,73.0,30.04,ESE,112,3.5,6.0,76,0.00,,,0.04,Rainwise IP-100,2013-09-11 19:40:00,
2013-09-11 15:45:00,82.3,74.0,30.04,SSE,157,1.6,7.0,77,0.00,,,0.04,Rainwise IP-100,2013-09-11 19:45:00,
2013-09-11 15:50:00,82.1,74.0,30.03,SE,135,4.7,9.0,78,0.00,,,0.04,Rainwise IP-100,2013-09-11 19:50:00,
2013-09-11 15:55:00,82.0,74.0,30.02,East,90,1.6,5.0,79,0.00,,,0.04,Rainwise IP-100,2013-09-11 19:55:00,
2013-09-11 16:01:00,81.9,74.0,30.03,NE,45,1.4,5.0,79,0.00,,,0.04,Rainwise IP-100,2013-09-11 20:01:00,
2013-09-11 16:06:00,81.9,74.0,30.03,ENE,67,2.6,4.0,79,0.00,,,0.04,Rainwise IP-100,2013-09-11 20:06:00,
2013-09-11 16:11:00,82.0,75.0,30.04,ESE,112,3.0,6.0,80,0.00,,,0.04,Rainwise IP-100,2013-09-11 20:11:00,
2013-09-11 16:16:00,81.8,75.0,30.03,SSE,157,5.6,10.0,81,0.00,,,0.04,Rainwise IP-100,2013-09-11 20:16:00,
2013-09-11 16:21:00,81.4,74.0,30.04,SSE,157,3.7,8.0,81,0.00,,,0.04,Rainwise IP-100,2013-09-11 20:21:00,
2013-09-11 16:26:00,81.3,74.0,30.03,SE,135,5.4,7.0,80,0.00,,,0.04,Rainwise IP-100,2013-09-11 20:26:00,
2013-09-11 16:31:00,81.5,74.0,30.03,ESE,112,2.6,7.0,80,0.00,,,0.04,Rainwise IP-100,2013-09-11 20:31:00,
2013-09-11 16:37:00,81.7,74.0,30.02,ENE,67,7.7,11.0,80,0.00,,,0.04,Rainwise IP-100,2013-09-11 20:37:00,
2013-09-11 16:42:00,81.6,75.0,30.03,East,90,5.4,11.0,82,0.00,,,0.04,Rainwise IP-100,2013-09-11 20:42:00,
2013-09-11 16:47:00,81.3,76.0,30.02,ENE,67,7.0,10.0,83,0.00,,,0.04,Rainwise IP-100,2013-09-11 20:47:00,
2013-09-11 16:52:00,81.2,76.0,30.02,SSE,157,0.0,8.0,84,0.00,,,0.04,Rainwise IP-100,2013-09-11 20:52:00,
2013-09-11 16:57:00,81.0,76.0,30.02,NE,45,6.8,9.0,84,0.00,,,0.04,Rainwise IP-100,2013-09-11 20:57:00,
2013-09-11 17:02:00,80.8,75.0,30.01,ENE,67,7.5,9.0,83,0.00,,,0.04,Rainwise IP-100,2013-09-11 21:02:00,
2013-09-11 17:07:00,80.8,74.0,30.02,East,90,4.0,10.0,81,0.00,,,0.04,Rainwise IP-100,2013-09-11 21:07:00,
2013-09-11 17:12:00,81.0,74.0,30.01,ENE,67,4.7,8.0,80,0.00,,,0.04,Rainwise IP-100,2013-09-11 21:12:00,
2013-09-11 17:18:00,81.1,74.0,30.01,ENE,67,4.0,9.0,79,0.00,,,0.04,Rainwise IP-100,2013-09-11 21:18:00,
2013-09-11 17:23:00,81.3,73.0,30.01,ENE,67,3.7,7.0,78,0.00,,,0.04,Rainwise IP-100,2013-09-11 21:23:00,
2013-09-11 17:28:00,81.4,73.0,30.02,ENE,67,2.1,6.0,77,0.00,,,0.04,Rainwise IP-100,2013-09-11 21:28:00,
2013-09-11 17:33:00,81.4,73.0,30.02,ENE,67,3.5,5.0,77,0.00,,,0.04,Rainwise IP-100,2013-09-11 21:33:00,
2013-09-11 17:38:00,81.5,73.0,30.02,ENE,67,3.5,8.0,77,0.00,,,0.04,Rainwise IP-100,2013-09-11 21:38:00,
2013-09-11 17:43:00,81.5,73.0,30.02,ENE,67,1.4,7.0,76,0.00,,,0.04,Rainwise IP-100,2013-09-11 21:43:00,
2013-09-11 17:48:00,81.6,73.0,30.02,ENE,67,3.7,8.0,76,0.00,,,0.04,Rainwise IP-100,2013-09-11 21:48:00,
2013-09-11 17:54:00,81.7,73.0,30.02,NE,45,3.5,6.0,76,0.00,,,0.04,Rainwise IP-100,2013-09-11 21:54:00,
2013-09-11 17:59:00,81.7,73.0,30.02,East,90,4.4,8.0,76,0.00,,,0.04,Rainwise IP-100,2013-09-11 21:59:00,
2013-09-11 18:04:00,81.6,73.0,30.02,ENE,67,4.7,11.0,76,0.00,,,0.04,Rainwise IP-100,2013-09-11 22:04:00,
2013-09-11 18:09:00,81.6,73.0,30.02,ENE,67,7.9,9.0,77,0.00,,,0.04,Rainwise IP-100,2013-09-11 22:09:00,
2013-09-11 18:14:00,81.5,74.0,30.02,ENE,67,6.5,11.0,79,0.00,,,0.04,Rainwise IP-100,2013-09-11 22:14:00,
2013-09-11 18:19:00,81.4,74.0,30.02,NE,45,8.6,11.0,79,0.00,,,0.04,Rainwise IP-100,2013-09-11 22:19:00,
2013-09-11 18:24:00,81.4,74.0,30.02,ENE,67,3.7,12.0,80,0.00,,,0.04,Rainwise IP-100,2013-09-11 22:24:00,
2013-09-11 18:29:00,81.4,74.0,30.02,NE,45,7.5,10.0,81,0.00,,,0.04,Rainwise IP-100,2013-09-11 22:29:00,
2013-09-11 18:35:00,81.3,75.0,30.02,ENE,67,6.1,12.0,82,0.00,,,0.04,Rainwise IP-100,2013-09-11 22:35:00,
2013-09-11 18:40:00,81.3,75.0,30.02,NE,45,11.4,11.4,82,0.00,,,0.04,Rainwise IP-100,2013-09-11 22:40:00,
2013-09-11 18:45:00,81.3,75.0,30.02,NE,45,7.9,11.0,82,0.00,,,0.04,Rainwise IP-100,2013-09-11 22:45:00,
2013-09-11 18:50:00,81.3,75.0,30.02,ENE,67,6.5,10.0,82,0.00,,,0.04,Rainwise IP-100,2013-09-11 22:50:00,
2013-09-11 18:55:00,81.3,75.0,30.03,ENE,67,3.0,9.0,82,0.00,,,0.04,Rainwise IP-100,2013-09-11 22:55:00,
2013-09-11 19:00:00,81.4,75.0,30.02,ENE,67,4.7,9.0,82,0.00,,,0.04,Rainwise IP-100,2013-09-11 23:00:00,
2013-09-11 19:05:00,81.4,76.0,30.02,East,90,5.6,11.0,83,0.00,,,0.04,Rainwise IP-100,2013-09-11 23:05:00,
2013-09-11 19:11:00,81.3,76.0,30.03,East,90,4.0,9.0,83,0.00,,,0.04,Rainwise IP-100,2013-09-11 23:11:00,
2013-09-11 19:16:00,81.3,76.0,30.03,ENE,67,5.1,11.0,83,0.00,,,0.04,Rainwise IP-100,2013-09-11 23:16:00,
2013-09-11 19:21:00,81.4,75.0,30.02,NE,45,7.7,11.0,82,0.00,,,0.04,Rainwise IP-100,2013-09-11 23:21:00,
2013-09-11 19:26:00,81.4,75.0,30.03,ENE,67,4.7,9.0,82,0.00,,,0.04,Rainwise IP-100,2013-09-11 23:26:00,
2013-09-11 19:31:00,81.5,75.0,30.02,ENE,67,7.2,11.0,82,0.00,,,0.04,Rainwise IP-100,2013-09-11 23:31:00,
2013-09-11 19:36:00,81.4,75.0,30.02,ENE,67,8.4,10.0,82,0.00,,,0.04,Rainwise IP-100,2013-09-11 23:36:00,
2013-09-11 19:41:00,81.5,75.0,30.02,ENE,67,5.8,9.0,81,0.00,,,0.04,Rainwise IP-100,2013-09-11 23:41:00,
2013-09-11 19:46:00,81.5,75.0,30.02,ENE,67,4.2,9.0,81,0.00,,,0.04,Rainwise IP-100,2013-09-11 23:46:00,
2013-09-11 19:52:00,81.6,75.0,30.02,East,90,5.6,12.0,81,0.00,,,0.04,Rainwise IP-100,2013-09-11 23:52:00,
2013-09-11 19:57:00,81.7,75.0,30.02,ENE,67,4.7,10.0,81,0.00,,,0.04,Rainwise IP-100,2013-09-11 23:57:00,
2013-09-11 20:02:00,81.8,75.0,30.03,ENE,67,5.1,8.0,81,0.00,,,0.04,Rainwise IP-100,2013-09-12 00:02:00,
2013-09-11 20:07:00,81.9,75.0,30.03,ENE,67,6.8,9.0,81,0.00,,,0.04,Rainwise IP-100,2013-09-12 00:07:00,
2013-09-11 20:12:00,82.0,75.0,30.03,ENE,67,0.0,10.0,80,0.00,,,0.04,Rainwise IP-100,2013-09-12 00:12:00,
2013-09-11 20:17:00,81.6,75.0,30.03,ENE,67,7.0,11.0,81,0.06,,,0.05,Rainwise IP-100,2013-09-12 00:17:00,
2013-09-11 20:22:00,80.8,75.0,30.03,East,90,5.4,9.0,83,0.06,,,0.05,Rainwise IP-100,2013-09-12 00:22:00,
2013-09-11 20:28:00,80.3,75.0,30.03,ENE,67,7.5,11.0,85,0.00,,,0.05,Rainwise IP-100,2013-09-12 00:28:00,
2013-09-11 20:33:00,80.1,75.0,30.04,ESE,112,2.3,11.0,85,0.00,,,0.05,Rainwise IP-100,2013-09-12 00:33:00,
2013-09-11 20:38:00,80.4,75.0,30.04,SSE,157,1.4,10.0,84,0.00,,,0.05,Rainwise IP-100,2013-09-12 00:38:00,
2013-09-11 20:43:00,80.2,74.0,30.03,ENE,67,3.3,13.0,83,0.06,,,0.06,Rainwise IP-100,2013-09-12 00:43:00,
2013-09-11 20:48:00,79.8,73.0,30.04,ESE,112,6.8,9.0,81,0.06,,,0.06,Rainwise IP-100,2013-09-12 00:48:00,
2013-09-11 20:53:00,80.2,73.0,30.04,NNE,22,8.4,11.0,79,0.00,,,0.06,Rainwise IP-100,2013-09-12 00:53:00,
2013-09-11 20:58:00,80.5,73.0,30.04,ENE,67,5.6,12.0,80,0.00,,,0.06,Rainwise IP-100,2013-09-12 00:58:00,
2013-09-11 21:03:00,80.4,74.0,30.03,ENE,67,4.0,10.0,82,0.00,,,0.06,Rainwise IP-100,2013-09-12 01:03:00,
2013-09-11 21:09:00,80.2,74.0,30.04,East,90,2.8,10.0,83,0.00,,,0.06,Rainwise IP-100,2013-09-12 01:09:00,
2013-09-11 21:14:00,80.3,74.0,30.03,ENE,67,6.3,10.0,83,0.00,,,0.06,Rainwise IP-100,2013-09-12 01:14:00,
2013-09-11 21:19:00,80.6,74.0,30.04,ESE,112,4.7,8.0,83,0.00,,,0.06,Rainwise IP-100,2013-09-12 01:19:00,
2013-09-11 21:24:00,80.7,75.0,30.04,ESE,112,2.8,8.0,84,0.00,,,0.06,Rainwise IP-100,2013-09-12 01:24:00,
2013-09-11 21:29:00,80.7,75.0,30.04,SE,135,2.8,8.0,84,0.00,,,0.06,Rainwise IP-100,2013-09-12 01:29:00,
2013-09-11 21:34:00,80.6,75.0,30.04,ESE,112,2.6,7.0,84,0.00,,,0.06,Rainwise IP-100,2013-09-12 01:34:00,
2013-09-11 21:39:00,80.6,75.0,30.04,ENE,67,4.7,6.0,84,0.00,,,0.06,Rainwise IP-100,2013-09-12 01:39:00,
2013-09-11 21:45:00,80.7,75.0,30.05,ENE,67,4.4,7.0,83,0.00,,,0.06,Rainwise IP-100,2013-09-12 01:45:00,
2013-09-11 21:50:00,81.0,75.0,30.04,ESE,112,3.3,7.0,83,0.00,,,0.06,Rainwise IP-100,2013-09-12 01:50:00,
2013-09-11 21:55:00,81.1,75.0,30.05,ESE,112,4.4,8.0,82,0.00,,,0.06,Rainwise IP-100,2013-09-12 01:55:00,
2013-09-11 22:00:00,81.1,74.0,30.05,East,90,3.5,5.0,81,0.00,,,0.06,Rainwise IP-100,2013-09-12 02:00:00,
2013-09-11 22:05:00,81.2,74.0,30.04,ENE,67,3.0,8.0,81,0.00,,,0.06,Rainwise IP-100,2013-09-12 02:05:00,
2013-09-11 22:10:00,81.2,74.0,30.04,ESE,112,3.3,7.0,81,0.00,,,0.06,Rainwise IP-100,2013-09-12 02:10:00,
2013-09-11 22:15:00,81.1,74.0,30.04,ENE,67,6.1,8.0,81,0.00,,,0.06,Rainwise IP-100,2013-09-12 02:15:00,
2013-09-11 22:20:00,81.0,75.0,30.05,ENE,67,5.1,12.0,82,0.00,,,0.06,Rainwise IP-100,2013-09-12 02:20:00,
2013-09-11 22:26:00,80.8,75.0,30.06,East,90,4.4,8.0,83,0.00,,,0.06,Rainwise IP-100,2013-09-12 02:26:00,
2013-09-11 22:31:00,80.7,75.0,30.06,ESE,112,4.9,8.0,84,0.00,,,0.06,Rainwise IP-100,2013-09-12 02:31:00,
2013-09-11 22:36:00,80.6,74.0,30.06,ENE,67,4.9,7.0,83,0.00,,,0.06,Rainwise IP-100,2013-09-12 02:36:00,
2013-09-11 22:41:00,80.8,75.0,30.06,ENE,67,6.1,8.0,83,0.00,,,0.06,Rainwise IP-100,2013-09-12 02:41:00,
2013-09-11 22:46:00,80.9,75.0,30.06,ENE,67,4.0,7.0,83,0.00,,,0.06,Rainwise IP-100,2013-09-12 02:46:00,
2013-09-11 22:51:00,80.9,75.0,30.06,East,90,2.8,7.0,83,0.00,,,0.06,Rainwise IP-100,2013-09-12 02:51:00,
2013-09-11 22:56:00,81.0,75.0,30.06,ESE,112,3.3,5.0,83,0.00,,,0.06,Rainwise IP-100,2013-09-12 02:56:00,
2013-09-11 23:02:00,81.2,76.0,30.06,ESE,112,2.8,7.0,83,0.00,,,0.06,Rainwise IP-100,2013-09-12 03:02:00,
2013-09-11 23:07:00,81.2,76.0,30.06,ESE,112,3.0,7.0,83,0.00,,,0.06,Rainwise IP-100,2013-09-12 03:07:00,
2013-09-11 23:12:00,81.2,75.0,30.05,ENE,67,1.9,4.0,82,0.00,,,0.06,Rainwise IP-100,2013-09-12 03:12:00,
2013-09-11 23:17:00,81.3,74.0,30.05,ENE,67,2.1,5.0,81,0.00,,,0.06,Rainwise IP-100,2013-09-12 03:17:00,
2013-09-11 23:22:00,81.4,74.0,30.05,East,90,1.9,5.0,81,0.00,,,0.06,Rainwise IP-100,2013-09-12 03:22:00,
2013-09-11 23:27:00,81.5,75.0,30.05,SE,135,1.2,5.0,81,0.00,,,0.06,Rainwise IP-100,2013-09-12 03:27:00,
2013-09-11 23:32:00,81.6,74.0,30.05,ESE,112,3.0,5.0,80,0.00,,,0.06,Rainwise IP-100,2013-09-12 03:32:00,
2013-09-11 23:37:00,81.7,74.0,30.05,ESE,112,1.9,8.0,80,0.00,,,0.06,Rainwise IP-100,2013-09-12 03:37:00,
2013-09-11 23:43:00,81.7,74.0,30.05,East,90,1.4,7.0,80,0.00,,,0.06,Rainwise IP-100,2013-09-12 03:43:00,
2013-09-11 23:48:00,81.5,75.0,30.05,WSW,247,1.6,5.0,81,0.00,,,0.06,Rainwise IP-100,2013-09-12 03:48:00,
2013-09-11 23:53:00,80.8,74.0,30.05,SSW,202,5.8,8.0,82,0.00,,,0.06,Rainwise IP-100,2013-09-12 03:53:00,
2013-09-11 23:58:00,80.3,74.0,30.05,SSW,202,4.2,8.0,82,0.00,,,0.06,Rainwise IP-100,2013-09-12 03:58:00,